BTK7308 WADD-WIHH

Flight info

Callsign BTK7308
Flight time N/A
Altitude 34000
Route OKANG T4 FARIZ T6 KURUS
Aircraft B738/M-SDE2E3FGHIRWXY/LB1

Departure

Time N/A
Airport Denpasar I Gusti Ngurah Rai International Airport (WADD)

Arrival

Time 2026-04-16 08:56
Airport Halim Perdanakusuma International Airport (WIHH)
Time Latitude Longitude Altitude Speed Heading
2026-04-16 08:14 -5.91853 110.80372 33803 ft 468 kts 263°
2026-04-16 08:14 -5.92151 110.77682 33803 ft 467 kts 263°
2026-04-16 08:15 -5.92873 110.71162 33803 ft 468 kts 263°
2026-04-16 08:15 -5.93597 110.64621 33809 ft 474 kts 263°
2026-04-16 08:16 -5.94339 110.57906 33802 ft 481 kts 263°
2026-04-16 08:16 -5.95078 110.51215 33802 ft 479 kts 263°
2026-04-16 08:17 -5.95818 110.44514 33803 ft 479 kts 263°
2026-04-16 08:17 -5.96505 110.37860 33802 ft 479 kts 267°
2026-04-16 08:19 -5.96505 110.11043 33803 ft 479 kts 270°
2026-04-16 08:20 -5.96500 110.04282 33804 ft 479 kts 270°
2026-04-16 08:20 -5.96496 109.97592 33803 ft 479 kts 270°
2026-04-16 08:21 -5.96492 109.90852 33804 ft 479 kts 270°
2026-04-16 08:21 -5.96486 109.84128 33803 ft 479 kts 270°
2026-04-16 08:22 -5.96481 109.77391 33804 ft 479 kts 270°
2026-04-16 08:22 -5.96475 109.70696 33804 ft 479 kts 270°
2026-04-16 08:23 -5.96468 109.64004 33803 ft 479 kts 270°
2026-04-16 08:23 -5.96460 109.57269 33804 ft 479 kts 270°
2026-04-16 08:24 -5.96452 109.50552 33804 ft 479 kts 270°
2026-04-16 08:24 -5.96443 109.43799 33803 ft 479 kts 270°
2026-04-16 08:25 -5.96432 109.37076 33804 ft 479 kts 270°
2026-04-16 08:25 -5.96421 109.30396 33804 ft 479 kts 270°
2026-04-16 08:26 -5.96410 109.23684 33804 ft 479 kts 270°
2026-04-16 08:26 -5.96397 109.16967 33804 ft 479 kts 270°
2026-04-16 08:27 -5.96384 109.10242 33804 ft 479 kts 270°
2026-04-16 08:27 -5.96370 109.03506 33804 ft 480 kts 270°
2026-04-16 08:28 -5.96354 108.96783 33804 ft 480 kts 271°
2026-04-16 08:28 -5.96337 108.90041 33803 ft 480 kts 271°
2026-04-16 08:29 -5.96319 108.83318 33803 ft 479 kts 271°
2026-04-16 08:29 -5.96302 108.76592 33804 ft 480 kts 271°
2026-04-16 08:30 -5.96283 108.69873 33804 ft 480 kts 271°
2026-04-16 08:30 -5.96264 108.63158 33803 ft 480 kts 271°
2026-04-16 08:31 -5.96244 108.56425 33799 ft 480 kts 271°
2026-04-16 08:31 -5.96241 108.53062 33374 ft 486 kts 269°
2026-04-16 08:31 -5.96515 108.49654 32759 ft 485 kts 262°
2026-04-16 08:32 -5.97228 108.46369 32159 ft 481 kts 253°
2026-04-16 08:32 -5.98460 108.43241 31556 ft 477 kts 244°
2026-04-16 08:32 -5.99939 108.40279 30954 ft 471 kts 242°
2026-04-16 08:32 -6.01396 108.37409 30359 ft 465 kts 243°
2026-04-16 08:33 -6.02852 108.34501 29756 ft 463 kts 243°
2026-04-16 08:33 -6.04288 108.31622 29161 ft 463 kts 243°
2026-04-16 08:33 -6.05704 108.28786 28563 ft 457 kts 243°
2026-04-16 08:33 -6.07137 108.25916 27953 ft 451 kts 243°
2026-04-16 08:34 -6.08507 108.23171 27345 ft 438 kts 243°
2026-04-16 08:34 -6.09847 108.20484 26744 ft 423 kts 243°
2026-04-16 08:34 -6.11135 108.17904 26148 ft 409 kts 243°
2026-04-16 08:34 -6.12383 108.15399 25549 ft 397 kts 243°
2026-04-16 08:35 -6.13611 108.12912 24957 ft 395 kts 243°
2026-04-16 08:35 -6.14833 108.10408 24350 ft 394 kts 243°
2026-04-16 08:35 -6.16041 108.07936 23747 ft 393 kts 243°
2026-04-16 08:35 -6.17240 108.05484 23132 ft 392 kts 243°
2026-04-16 08:36 -6.18447 108.03015 22494 ft 389 kts 243°
2026-04-16 08:36 -6.19609 108.00610 21858 ft 378 kts 245°
2026-04-16 08:36 -6.20531 107.98148 21224 ft 368 kts 253°
2026-04-16 08:36 -6.21058 107.95672 20619 ft 367 kts 264°
2026-04-16 08:37 -6.21152 107.93090 19991 ft 367 kts 271°
2026-04-16 08:37 -6.21082 107.90538 19367 ft 368 kts 271°
2026-04-16 08:37 -6.21023 107.87923 18730 ft 369 kts 271°
2026-04-16 08:37 -6.20971 107.85347 18102 ft 369 kts 271°
2026-04-16 08:38 -6.20916 107.82764 17472 ft 368 kts 271°
2026-04-16 08:38 -6.20859 107.80180 16842 ft 368 kts 271°
2026-04-16 08:38 -6.20802 107.77629 16219 ft 367 kts 271°
2026-04-16 08:38 -6.20744 107.75073 15476 ft 358 kts 271°
2026-04-16 08:39 -6.20688 107.72605 14653 ft 353 kts 271°
2026-04-16 08:39 -6.20632 107.70139 14111 ft 350 kts 271°
2026-04-16 08:39 -6.20576 107.67696 13530 ft 349 kts 271°
2026-04-16 08:39 -6.20520 107.65262 12977 ft 347 kts 271°
2026-04-16 08:40 -6.20463 107.62834 12430 ft 344 kts 271°
2026-04-16 08:40 -6.20404 107.60419 11916 ft 341 kts 271°
2026-04-16 08:40 -6.20344 107.58047 11425 ft 338 kts 271°
2026-04-16 08:40 -6.20284 107.55679 10966 ft 333 kts 271°
2026-04-16 08:41 -6.20226 107.53361 10512 ft 329 kts 271°
2026-04-16 08:41 -6.20168 107.51057 10057 ft 326 kts 271°
2026-04-16 08:41 -6.20111 107.48801 9608 ft 322 kts 271°
2026-04-16 08:41 -6.20055 107.46552 9155 ft 319 kts 271°
2026-04-16 08:42 -6.20026 107.44317 8698 ft 317 kts 266°
2026-04-16 08:42 -6.20478 107.42152 8244 ft 314 kts 251°
2026-04-16 08:42 -6.21208 107.40076 7793 ft 311 kts 250°
2026-04-16 08:42 -6.21920 107.38021 7340 ft 309 kts 250°
2026-04-16 08:43 -6.22618 107.36001 6892 ft 307 kts 250°
2026-04-16 08:43 -6.23313 107.33991 6444 ft 306 kts 250°
2026-04-16 08:43 -6.24017 107.31955 6041 ft 302 kts 250°
2026-04-16 08:43 -6.24690 107.30010 5978 ft 286 kts 250°
2026-04-16 08:44 -6.25331 107.28157 5989 ft 279 kts 250°
2026-04-16 08:44 -6.25968 107.26313 5996 ft 282 kts 250°
2026-04-16 08:44 -6.26619 107.24433 5994 ft 283 kts 250°
2026-04-16 08:44 -6.27282 107.22546 5993 ft 282 kts 248°
2026-04-16 08:45 -6.28090 107.20733 5994 ft 282 kts 244°
2026-04-16 08:45 -6.28918 107.18960 5993 ft 282 kts 244°
2026-04-16 08:45 -6.29759 107.17150 5993 ft 283 kts 245°
2026-04-16 08:45 -6.30602 107.15374 5993 ft 283 kts 243°
2026-04-16 08:46 -6.31522 107.13635 5992 ft 283 kts 239°
2026-04-16 08:46 -6.32513 107.11906 5956 ft 284 kts 241°
2026-04-16 08:46 -6.33455 107.10158 5697 ft 284 kts 242°
2026-04-16 08:46 -6.34386 107.08432 5548 ft 280 kts 242°
2026-04-16 08:47 -6.35321 107.06702 5398 ft 281 kts 242°
2026-04-16 08:47 -6.36247 107.04990 5249 ft 281 kts 242°
2026-04-16 08:47 -6.37193 107.03269 5099 ft 280 kts 240°
2026-04-16 08:47 -6.38137 107.01569 4950 ft 280 kts 242°
2026-04-16 08:48 -6.39069 106.99852 4800 ft 279 kts 242°
2026-04-16 08:48 -6.39980 106.98130 4654 ft 278 kts 247°
2026-04-16 08:48 -6.40524 106.96282 4519 ft 277 kts 259°
2026-04-16 08:48 -6.40906 106.94405 4384 ft 276 kts 260°
2026-04-16 08:49 -6.41254 106.92490 4246 ft 276 kts 261°
2026-04-16 08:49 -6.41581 106.90601 4119 ft 275 kts 261°
2026-04-16 08:49 -6.41897 106.88736 4087 ft 266 kts 261°
2026-04-16 08:49 -6.42200 106.86930 4010 ft 259 kts 262°
2026-04-16 08:50 -6.42495 106.85162 3888 ft 257 kts 262°
2026-04-16 08:50 -6.42786 106.83409 3764 ft 257 kts 262°
2026-04-16 08:50 -6.43081 106.81629 3639 ft 257 kts 262°
2026-04-16 08:50 -6.43085 106.79871 3498 ft 254 kts 286°
2026-04-16 08:51 -6.42269 106.78373 3353 ft 248 kts 319°
2026-04-16 08:51 -6.40811 106.77524 3210 ft 236 kts 340°
2026-04-16 08:51 -6.39337 106.76892 3059 ft 229 kts 337°
2026-04-16 08:51 -6.37920 106.76234 2918 ft 223 kts 337°
2026-04-16 08:52 -6.36542 106.75606 2809 ft 220 kts 338°
2026-04-16 08:52 -6.35126 106.74967 2653 ft 218 kts 339°
2026-04-16 08:52 -6.33755 106.74703 2512 ft 194 kts
2026-04-16 08:52 -6.32555 106.75200 2491 ft 192 kts 38°
2026-04-16 08:53 -6.31738 106.76230 2490 ft 195 kts 64°
2026-04-16 08:53 -6.31362 106.77531 2402 ft 198 kts 76°
2026-04-16 08:53 -6.31017 106.78838 1991 ft 184 kts 71°
2026-04-16 08:53 -6.30640 106.79977 1744 ft 163 kts 69°
2026-04-16 08:54 -6.30249 106.81035 1546 ft 159 kts 66°
2026-04-16 08:54 -6.29832 106.82053 1348 ft 160 kts 65°
2026-04-16 08:54 -6.29389 106.83080 1117 ft 159 kts 64°
2026-04-16 08:54 -6.28943 106.84087 895 ft 152 kts 64°
2026-04-16 08:55 -6.28526 106.85020 697 ft 142 kts 63°
2026-04-16 08:55 -6.28116 106.85934 526 ft 142 kts 64°
2026-04-16 08:55 -6.27726 106.86858 360 ft 142 kts 64°
2026-04-16 08:55 -6.27297 106.87758 171 ft 142 kts 61°
2026-04-16 08:56 -6.26896 106.88599 100 ft 113 kts 65°
2026-04-16 08:56 -6.26681 106.89069 99 ft 42 kts 64°
2026-04-16 08:56 -6.26606 106.89204 99 ft 11 kts 14°
2026-04-16 08:56 -6.26556 106.89168 99 ft 7 kts 300°
2026-04-16 08:57 -6.26538 106.89132 99 ft 4 kts 294°
2026-04-16 08:57 -6.26516 106.89075 99 ft 12 kts 290°
2026-04-16 08:57 -6.26506 106.88975 99 ft 17 kts 248°
2026-04-16 08:57 -6.26546 106.88886 99 ft 5 kts 249°
2026-04-16 08:58 -6.26560 106.88847 99 ft 5 kts 261°
2026-04-16 08:58 -6.26550 106.88821 99 ft 2 kts 323°
2026-04-16 08:58 -6.26531 106.88810 99 ft 2 kts 333°
2026-04-16 08:58 -6.26526 106.88808 99 ft 0 kts 334°